Time,TemperatureF,DewpointF,PressureIn,WindDirection,WindDirectionDegrees,WindSpeedMPH,WindSpeedGustMPH,Humidity,HourlyPrecipIn,Conditions,Clouds,dailyrainin,SolarRadiationWatts/m^2,SoftwareType,DateUTC
2013-07-29 00:02:00,59.8,53.6,30.09,WNW,300,2.0,8.0,80,0.00,,,0.00,0,Wunderground v.1.15,2013-07-29 05:02:00,
2013-07-29 00:07:00,59.8,53.6,30.08,West,278,5.0,8.0,80,0.00,,,0.00,0,Wunderground v.1.15,2013-07-29 05:07:00,
2013-07-29 00:12:00,59.7,53.5,30.09,NW,305,2.0,6.0,80,0.00,,,0.00,0,Wunderground v.1.15,2013-07-29 05:12:00,
2013-07-29 00:17:00,59.6,53.4,30.09,NW,315,0.0,6.0,80,0.00,,,0.00,0,Wunderground v.1.15,2013-07-29 05:17:00,
2013-07-29 00:23:00,59.5,53.3,30.09,West,281,0.0,4.0,80,0.00,,,0.00,0,Wunderground v.1.15,2013-07-29 05:23:00,
2013-07-29 00:28:00,59.5,53.3,30.09,WNW,285,0.0,5.0,80,0.00,,,0.00,0,Wunderground v.1.15,2013-07-29 05:28:00,
2013-07-29 00:33:00,59.4,53.2,30.09,West,280,0.0,6.0,80,0.00,,,0.00,0,Wunderground v.1.15,2013-07-29 05:33:00,
2013-07-29 00:39:00,59.3,53.5,30.09,West,272,0.0,6.0,81,0.00,,,0.00,0,Wunderground v.1.15,2013-07-29 05:39:00,
2013-07-29 00:45:00,59.2,53.7,30.09,West,272,0.0,1.0,82,0.00,,,0.00,0,Wunderground v.1.15,2013-07-29 05:45:00,
2013-07-29 00:50:00,59.1,53.6,30.09,West,273,0.0,1.0,82,0.00,,,0.00,0,Wunderground v.1.15,2013-07-29 05:50:00,
2013-07-29 00:56:00,59.0,53.5,30.09,West,273,0.0,4.0,82,0.00,,,0.00,0,Wunderground v.1.15,2013-07-29 05:56:00,
2013-07-29 01:02:00,58.9,53.4,30.09,West,274,2.0,2.0,82,0.00,,,0.00,0,Wunderground v.1.15,2013-07-29 06:02:00,
2013-07-29 01:07:00,58.9,53.7,30.09,West,274,0.0,4.0,83,0.00,,,0.00,0,Wunderground v.1.15,2013-07-29 06:07:00,
2013-07-29 01:13:00,58.8,53.6,30.09,West,274,0.0,1.0,83,0.00,,,0.00,0,Wunderground v.1.15,2013-07-29 06:13:00,
2013-07-29 01:19:00,58.7,53.5,30.09,West,272,4.0,4.0,83,0.00,,,0.00,0,Wunderground v.1.15,2013-07-29 06:19:00,
2013-07-29 01:24:00,58.6,53.5,30.09,WNW,298,7.0,7.0,83,0.00,,,0.00,0,Wunderground v.1.15,2013-07-29 06:24:00,
2013-07-29 01:29:00,58.6,53.5,30.09,WNW,299,4.0,7.0,83,0.00,,,0.00,0,Wunderground v.1.15,2013-07-29 06:29:00,
2013-07-29 01:35:00,58.6,53.5,30.09,WNW,301,2.0,5.0,83,0.00,,,0.00,0,Wunderground v.1.15,2013-07-29 06:35:00,
2013-07-29 01:40:00,58.6,53.5,30.09,WNW,286,2.0,3.0,83,0.00,,,0.00,0,Wunderground v.1.15,2013-07-29 06:40:00,
2013-07-29 01:46:00,58.4,53.3,30.09,WNW,294,0.0,4.0,83,0.00,,,0.00,0,Wunderground v.1.15,2013-07-29 06:46:00,
2013-07-29 01:51:00,58.3,52.8,30.09,West,279,5.0,5.0,82,0.00,,,0.00,0,Wunderground v.1.15,2013-07-29 06:51:00,
2013-07-29 01:57:00,58.2,52.7,30.09,WNW,300,0.0,5.0,82,0.00,,,0.00,0,Wunderground v.1.15,2013-07-29 06:57:00,
2013-07-29 02:02:00,57.9,52.4,30.10,NW,304,7.0,9.0,82,0.00,,,0.00,0,Wunderground v.1.15,2013-07-29 07:02:00,
2013-07-29 02:07:00,57.7,52.2,30.10,West,277,0.0,11.0,82,0.00,,,0.00,0,Wunderground v.1.15,2013-07-29 07:07:00,
2013-07-29 02:12:00,57.5,51.7,30.10,West,281,1.0,7.0,81,0.00,,,0.00,0,Wunderground v.1.15,2013-07-29 07:12:00,
2013-07-29 02:17:00,57.3,51.9,30.10,WNW,283,0.0,7.0,82,0.00,,,0.00,0,Wunderground v.1.15,2013-07-29 07:17:00,
2013-07-29 02:22:00,57.0,51.6,30.10,WNW,284,0.0,1.0,82,0.00,,,0.00,0,Wunderground v.1.15,2013-07-29 07:22:00,
2013-07-29 02:27:00,56.7,51.3,30.10,WNW,284,0.0,2.0,82,0.00,,,0.00,0,Wunderground v.1.15,2013-07-29 07:27:00,
2013-07-29 02:32:00,56.5,51.4,30.10,WNW,284,0.0,4.0,83,0.00,,,0.00,0,Wunderground v.1.15,2013-07-29 07:32:00,
2013-07-29 02:37:00,56.3,51.2,30.10,WNW,285,0.0,6.0,83,0.00,,,0.00,0,Wunderground v.1.15,2013-07-29 07:37:00,
2013-07-29 02:42:00,56.0,50.9,30.10,WNW,285,0.0,5.0,83,0.00,,,0.00,0,Wunderground v.1.15,2013-07-29 07:42:00,
2013-07-29 02:47:00,55.7,50.9,30.11,WNW,286,1.0,5.0,84,0.00,,,0.00,0,Wunderground v.1.15,2013-07-29 07:47:00,
2013-07-29 02:52:00,55.5,50.7,30.11,WNW,286,0.0,4.0,84,0.00,,,0.00,0,Wunderground v.1.15,2013-07-29 07:52:00,
2013-07-29 02:57:00,55.3,50.5,30.11,WNW,286,1.0,4.0,84,0.00,,,0.00,0,Wunderground v.1.15,2013-07-29 07:57:00,
2013-07-29 03:02:00,55.0,50.6,30.11,WNW,286,2.0,5.0,85,0.00,,,0.00,0,Wunderground v.1.15,2013-07-29 08:02:00,
2013-07-29 03:07:00,54.8,50.4,30.11,WNW,286,4.0,5.0,85,0.00,,,0.00,0,Wunderground v.1.15,2013-07-29 08:07:00,
2013-07-29 03:12:00,54.7,50.6,30.11,WNW,286,0.0,4.0,86,0.00,,,0.00,0,Wunderground v.1.15,2013-07-29 08:12:00,
2013-07-29 03:17:00,54.6,50.5,30.12,WNW,286,1.0,4.0,86,0.00,,,0.00,0,Wunderground v.1.15,2013-07-29 08:17:00,
2013-07-29 03:22:00,54.6,50.8,30.12,WNW,286,0.0,4.0,87,0.00,,,0.00,0,Wunderground v.1.15,2013-07-29 08:22:00,
2013-07-29 03:27:00,54.6,51.1,30.12,WNW,286,0.0,7.0,88,0.00,,,0.00,0,Wunderground v.1.15,2013-07-29 08:27:00,
2013-07-29 03:32:00,54.7,51.2,30.12,WNW,287,0.0,4.0,88,0.00,,,0.00,0,Wunderground v.1.15,2013-07-29 08:32:00,
2013-07-29 03:37:00,54.7,51.2,30.12,WNW,289,1.0,6.0,88,0.00,,,0.00,0,Wunderground v.1.15,2013-07-29 08:37:00,
2013-07-29 03:43:00,54.7,51.2,30.12,WNW,292,5.0,5.0,88,0.00,,,0.00,0,Wunderground v.1.15,2013-07-29 08:43:00,
2013-07-29 03:48:00,54.7,50.9,30.13,WNW,294,1.0,5.0,87,0.00,,,0.00,0,Wunderground v.1.15,2013-07-29 08:48:00,
2013-07-29 03:53:00,54.8,51.0,30.13,WNW,294,0.0,1.0,87,0.00,,,0.00,0,Wunderground v.1.15,2013-07-29 08:53:00,
2013-07-29 03:58:00,54.8,51.0,30.13,WNW,296,1.0,7.0,87,0.00,,,0.00,0,Wunderground v.1.15,2013-07-29 08:58:00,
2013-07-29 04:03:00,54.8,51.0,30.13,WNW,290,2.0,5.0,87,0.00,,,0.00,0,Wunderground v.1.15,2013-07-29 09:03:00,
2013-07-29 04:08:00,54.8,51.0,30.13,WNW,293,0.0,6.0,87,0.00,,,0.00,0,Wunderground v.1.15,2013-07-29 09:08:00,
2013-07-29 04:13:00,54.8,51.0,30.13,NW,317,0.0,5.0,87,0.00,,,0.00,0,Wunderground v.1.15,2013-07-29 09:13:00,
2013-07-29 04:18:00,54.8,51.0,30.13,NW,318,5.0,7.0,87,0.00,,,0.00,0,Wunderground v.1.15,2013-07-29 09:18:00,
2013-07-29 04:23:00,54.9,51.1,30.13,NW,316,0.0,5.0,87,0.00,,,0.00,0,Wunderground v.1.15,2013-07-29 09:23:00,
2013-07-29 04:28:00,54.9,50.8,30.13,NW,318,1.0,5.0,86,0.00,,,0.00,0,Wunderground v.1.15,2013-07-29 09:28:00,
2013-07-29 04:33:00,55.0,50.9,30.13,NW,324,0.0,5.0,86,0.00,,,0.00,0,Wunderground v.1.15,2013-07-29 09:33:00,
2013-07-29 04:38:00,55.0,50.9,30.13,NW,323,0.0,5.0,86,0.00,,,0.00,0,Wunderground v.1.15,2013-07-29 09:38:00,
2013-07-29 04:43:00,55.1,51.0,30.13,NW,323,0.0,5.0,86,0.00,,,0.00,0,Wunderground v.1.15,2013-07-29 09:43:00,
2013-07-29 04:48:00,55.1,51.0,30.14,NW,322,4.0,5.0,86,0.00,,,0.00,0,Wunderground v.1.15,2013-07-29 09:48:00,
2013-07-29 04:53:00,55.1,51.0,30.14,NW,322,0.0,1.0,86,0.00,,,0.00,0,Wunderground v.1.15,2013-07-29 09:53:00,
2013-07-29 04:58:00,55.2,50.8,30.14,NW,322,0.0,5.0,85,0.00,,,0.00,0,Wunderground v.1.15,2013-07-29 09:58:00,
2013-07-29 05:03:00,55.3,50.9,30.14,NW,322,0.0,1.0,85,0.00,,,0.00,0,Wunderground v.1.15,2013-07-29 10:03:00,
2013-07-29 05:08:00,55.2,51.1,30.14,NW,322,0.0,2.0,86,0.00,,,0.00,0,Wunderground v.1.15,2013-07-29 10:08:00,
2013-07-29 05:13:00,55.2,50.8,30.15,NW,322,0.0,5.0,85,0.00,,,0.00,0,Wunderground v.1.15,2013-07-29 10:13:00,
2013-07-29 05:19:00,55.2,51.1,30.15,NW,322,0.0,5.0,86,0.00,,,0.00,0,Wunderground v.1.15,2013-07-29 10:19:00,
2013-07-29 05:24:00,55.2,51.1,30.15,NW,322,0.0,1.0,86,0.00,,,0.00,0,Wunderground v.1.15,2013-07-29 10:24:00,
2013-07-29 05:29:00,55.1,51.0,30.15,NW,322,0.0,2.0,86,0.00,,,0.00,0,Wunderground v.1.15,2013-07-29 10:29:00,
2013-07-29 05:34:00,55.1,51.0,30.15,NW,319,0.0,9.0,86,0.00,,,0.00,0,Wunderground v.1.15,2013-07-29 10:34:00,
2013-07-29 05:39:00,55.1,51.0,30.14,NW,319,0.0,9.0,86,0.00,,,0.00,0,Wunderground v.1.15,2013-07-29 10:39:00,
2013-07-29 05:44:00,55.0,50.9,30.14,NNW,340,0.0,5.0,86,0.00,,,0.00,5,Wunderground v.1.15,2013-07-29 10:44:00,
2013-07-29 05:49:00,54.9,50.8,30.15,WNW,300,0.0,8.0,86,0.00,,,0.00,5,Wunderground v.1.15,2013-07-29 10:49:00,
2013-07-29 05:54:00,54.9,50.8,30.15,NNW,327,0.0,6.0,86,0.00,,,0.00,9,Wunderground v.1.15,2013-07-29 10:54:00,
2013-07-29 06:00:00,54.8,50.7,30.15,NNW,331,0.0,1.0,86,0.00,,,0.00,14,Wunderground v.1.15,2013-07-29 11:00:00,
2013-07-29 06:05:00,54.8,50.7,30.15,NNW,346,1.0,4.0,86,0.00,,,0.00,16,Wunderground v.1.15,2013-07-29 11:05:00,
2013-07-29 06:10:00,54.8,50.7,30.15,NNW,347,0.0,1.0,86,0.00,,,0.00,19,Wunderground v.1.15,2013-07-29 11:10:00,
2013-07-29 06:15:00,54.8,50.7,30.15,NNW,348,0.0,1.0,86,0.00,,,0.00,23,Wunderground v.1.15,2013-07-29 11:15:00,
2013-07-29 06:20:00,54.8,50.7,30.15,NNW,346,0.0,1.0,86,0.00,,,0.00,26,Wunderground v.1.15,2013-07-29 11:20:00,
2013-07-29 06:25:00,54.9,50.8,30.15,NNE,12,5.0,7.0,86,0.00,,,0.00,33,Wunderground v.1.15,2013-07-29 11:25:00,
2013-07-29 06:30:00,54.9,50.8,30.16,North,5,0.0,1.0,86,0.00,,,0.00,40,Wunderground v.1.15,2013-07-29 11:30:00,
2013-07-29 06:35:00,54.9,50.8,30.16,North,5,0.0,2.0,86,0.00,,,0.00,53,Wunderground v.1.15,2013-07-29 11:35:00,
2013-07-29 06:41:00,55.0,50.9,30.16,NW,320,0.0,1.0,86,0.00,,,0.00,60,Wunderground v.1.15,2013-07-29 11:41:00,
2013-07-29 06:46:00,55.1,51.3,30.17,NW,316,4.0,4.0,87,0.00,,,0.00,58,Wunderground v.1.15,2013-07-29 11:46:00,
2013-07-29 06:51:00,55.1,51.0,30.17,NW,325,1.0,1.0,86,0.00,,,0.00,70,Wunderground v.1.15,2013-07-29 11:51:00,
2013-07-29 06:56:00,55.2,51.1,30.17,NNW,346,0.0,6.0,86,0.00,,,0.00,74,Wunderground v.1.15,2013-07-29 11:56:00,
2013-07-29 07:01:00,55.3,51.2,30.17,North,5,2.0,4.0,86,0.00,,,0.00,74,Wunderground v.1.15,2013-07-29 12:01:00,
2013-07-29 07:06:00,55.4,51.3,30.17,NW,307,0.0,6.0,86,0.00,,,0.00,81,Wunderground v.1.15,2013-07-29 12:06:00,
2013-07-29 07:11:00,55.6,51.5,30.17,NW,310,0.0,2.0,86,0.00,,,0.00,90,Wunderground v.1.15,2013-07-29 12:11:00,
2013-07-29 07:17:00,55.7,51.3,30.17,NNW,343,2.0,9.0,85,0.00,,,0.00,104,Wunderground v.1.15,2013-07-29 12:17:00,
2013-07-29 07:22:00,55.8,51.4,30.18,NW,321,0.0,4.0,85,0.00,,,0.00,113,Wunderground v.1.15,2013-07-29 12:22:00,
2013-07-29 07:27:00,55.9,51.5,30.18,WNW,300,0.0,6.0,85,0.00,,,0.00,118,Wunderground v.1.15,2013-07-29 12:27:00,
2013-07-29 07:32:00,56.0,51.6,30.18,NW,304,0.0,2.0,85,0.00,,,0.00,118,Wunderground v.1.15,2013-07-29 12:32:00,
2013-07-29 07:37:00,56.2,51.7,30.18,NE,45,0.0,8.0,85,0.00,,,0.00,123,Wunderground v.1.15,2013-07-29 12:37:00,
2013-07-29 07:42:00,56.3,51.8,30.19,NW,319,0.0,8.0,85,0.00,,,0.00,125,Wunderground v.1.15,2013-07-29 12:42:00,
2013-07-29 07:47:00,56.4,51.9,30.19,NW,320,0.0,8.0,85,0.00,,,0.00,139,Wunderground v.1.15,2013-07-29 12:47:00,
2013-07-29 07:52:00,56.5,51.7,30.19,NW,316,4.0,7.0,84,0.00,,,0.00,134,Wunderground v.1.15,2013-07-29 12:52:00,
2013-07-29 07:58:00,56.7,52.2,30.19,NNW,342,0.0,7.0,85,0.00,,,0.00,135,Wunderground v.1.15,2013-07-29 12:58:00,
2013-07-29 08:03:00,56.8,52.0,30.20,North,350,1.0,5.0,84,0.00,,,0.00,142,Wunderground v.1.15,2013-07-29 13:03:00,
2013-07-29 08:08:00,56.9,52.1,30.20,NNE,17,0.0,5.0,84,0.00,,,0.00,127,Wunderground v.1.15,2013-07-29 13:08:00,
2013-07-29 08:13:00,57.0,52.2,30.20,NNW,332,0.0,6.0,84,0.00,,,0.00,128,Wunderground v.1.15,2013-07-29 13:13:00,
2013-07-29 08:18:00,57.0,52.2,30.20,NNW,335,4.0,7.0,84,0.00,,,0.00,128,Wunderground v.1.15,2013-07-29 13:18:00,
2013-07-29 08:23:00,57.1,52.3,30.20,NNW,333,0.0,4.0,84,0.00,,,0.00,155,Wunderground v.1.15,2013-07-29 13:23:00,
2013-07-29 08:28:00,57.2,52.1,30.20,NNW,343,1.0,4.0,83,0.00,,,0.00,165,Wunderground v.1.15,2013-07-29 13:28:00,
2013-07-29 08:33:00,57.3,52.2,30.20,NNE,16,0.0,5.0,83,0.00,,,0.00,171,Wunderground v.1.15,2013-07-29 13:33:00,
2013-07-29 08:38:00,57.5,52.7,30.20,NW,324,2.0,5.0,84,0.00,,,0.00,172,Wunderground v.1.15,2013-07-29 13:38:00,
2013-07-29 08:43:00,57.4,52.3,30.21,WNW,301,0.0,5.0,83,0.00,,,0.00,176,Wunderground v.1.15,2013-07-29 13:43:00,
2013-07-29 08:49:00,57.3,52.2,30.21,NNW,331,0.0,6.0,83,0.00,,,0.00,199,Wunderground v.1.15,2013-07-29 13:49:00,
2013-07-29 08:54:00,57.3,52.2,30.20,NNW,331,0.0,4.0,83,0.00,,,0.00,229,Wunderground v.1.15,2013-07-29 13:54:00,
2013-07-29 08:59:00,57.4,52.6,30.20,NNW,331,0.0,4.0,84,0.00,,,0.00,248,Wunderground v.1.15,2013-07-29 13:59:00,
2013-07-29 09:04:00,57.6,52.8,30.21,NNW,331,1.0,2.0,84,0.00,,,0.00,236,Wunderground v.1.15,2013-07-29 14:04:00,
2013-07-29 09:09:00,57.7,52.9,30.21,NNW,342,0.0,6.0,84,0.00,,,0.00,264,Wunderground v.1.15,2013-07-29 14:09:00,
2013-07-29 09:14:00,57.8,52.3,30.21,WNW,296,2.0,9.0,82,0.00,,,0.00,281,Wunderground v.1.15,2013-07-29 14:14:00,
2013-07-29 09:19:00,58.0,52.9,30.22,WNW,300,5.0,9.0,83,0.00,,,0.00,290,Wunderground v.1.15,2013-07-29 14:19:00,
2013-07-29 09:24:00,58.0,52.5,30.22,WNW,299,1.0,6.0,82,0.00,,,0.00,283,Wunderground v.1.15,2013-07-29 14:24:00,
2013-07-29 09:29:00,58.0,52.5,30.22,WNW,284,4.0,6.0,82,0.00,,,0.00,257,Wunderground v.1.15,2013-07-29 14:29:00,
2013-07-29 09:34:00,57.9,52.4,30.22,West,260,0.0,6.0,82,0.00,,,0.00,309,Wunderground v.1.15,2013-07-29 14:34:00,
2013-07-29 09:40:00,57.9,52.1,30.22,West,277,0.0,2.0,81,0.00,,,0.00,341,Wunderground v.1.15,2013-07-29 14:40:00,
2013-07-29 09:45:00,58.1,52.6,30.22,NW,308,1.0,5.0,82,0.00,,,0.00,355,Wunderground v.1.15,2013-07-29 14:45:00,
2013-07-29 09:50:00,58.4,53.3,30.23,NW,306,2.0,2.0,83,0.00,,,0.00,374,Wunderground v.1.15,2013-07-29 14:50:00,
2013-07-29 09:55:00,58.6,52.4,30.22,NW,306,0.0,2.0,80,0.00,,,0.00,343,Wunderground v.1.15,2013-07-29 14:55:00,
2013-07-29 10:00:00,59.0,52.8,30.22,NW,306,0.0,0.0,80,0.00,,,0.00,287,Wunderground v.1.15,2013-07-29 15:00:00,
2013-07-29 10:05:00,59.5,53.7,30.22,NW,308,0.0,1.0,81,0.00,,,0.00,1081,Wunderground v.1.15,2013-07-29 15:05:00,
2013-07-29 10:10:00,60.2,54.0,30.22,West,264,1.0,1.0,80,0.00,,,0.00,396,Wunderground v.1.15,2013-07-29 15:10:00,
2013-07-29 10:15:00,60.4,53.5,30.22,West,278,2.0,4.0,78,0.00,,,0.00,396,Wunderground v.1.15,2013-07-29 15:15:00,
2013-07-29 10:20:00,60.7,53.8,30.22,NW,313,1.0,2.0,78,0.00,,,0.00,457,Wunderground v.1.15,2013-07-29 15:20:00,
2013-07-29 10:25:00,61.0,54.4,30.23,WSW,255,1.0,6.0,79,0.00,,,0.00,436,Wunderground v.1.15,2013-07-29 15:25:00,
2013-07-29 10:30:00,60.8,53.9,30.23,WSW,250,3.0,4.0,78,0.00,,,0.00,406,Wunderground v.1.15,2013-07-29 15:30:00,
2013-07-29 10:36:00,60.4,54.2,30.23,SW,235,3.0,7.0,80,0.00,,,0.00,424,Wunderground v.1.15,2013-07-29 15:36:00,
2013-07-29 10:41:00,60.2,53.3,30.23,SW,236,3.0,5.0,78,0.00,,,0.00,345,Wunderground v.1.15,2013-07-29 15:41:00,
2013-07-29 10:46:00,60.4,54.2,30.23,WSW,248,2.0,6.0,80,0.00,,,0.00,584,Wunderground v.1.15,2013-07-29 15:46:00,
2013-07-29 10:51:00,60.9,54.0,30.23,WSW,249,0.0,2.0,78,0.00,,,0.00,962,Wunderground v.1.15,2013-07-29 15:51:00,
2013-07-29 10:56:00,61.7,55.1,30.23,NW,319,0.0,4.0,79,0.00,,,0.00,578,Wunderground v.1.15,2013-07-29 15:56:00,
2013-07-29 11:01:00,62.3,54.6,30.23,NNW,346,2.0,5.0,76,0.00,,,0.00,348,Wunderground v.1.15,2013-07-29 16:01:00,
2013-07-29 11:06:00,62.2,54.2,30.23,NW,309,0.0,7.0,75,0.00,,,0.00,548,Wunderground v.1.15,2013-07-29 16:06:00,
2013-07-29 11:12:00,62.2,54.2,30.23,West,263,2.0,6.0,75,0.00,,,0.00,1086,Wunderground v.1.15,2013-07-29 16:12:00,
2013-07-29 11:17:00,62.7,55.4,30.24,SW,221,5.0,6.0,77,0.00,,,0.00,981,Wunderground v.1.15,2013-07-29 16:17:00,
2013-07-29 11:22:00,62.7,54.7,30.24,SW,220,4.0,7.0,75,0.00,,,0.00,951,Wunderground v.1.15,2013-07-29 16:22:00,
2013-07-29 11:27:00,62.6,54.9,30.24,WNW,289,1.0,8.0,76,0.00,,,0.00,925,Wunderground v.1.15,2013-07-29 16:27:00,
2013-07-29 11:32:00,62.9,54.9,30.24,West,272,4.0,4.0,75,0.00,,,0.00,925,Wunderground v.1.15,2013-07-29 16:32:00,
2013-07-29 11:37:00,63.0,54.6,30.24,West,259,1.0,4.0,74,0.00,,,0.00,918,Wunderground v.1.15,2013-07-29 16:37:00,
2013-07-29 11:43:00,63.5,55.4,30.24,WSW,243,0.0,3.0,75,0.00,,,0.00,916,Wunderground v.1.15,2013-07-29 16:43:00,
2013-07-29 11:48:00,64.0,55.5,30.24,West,277,0.0,6.0,74,0.00,,,0.00,907,Wunderground v.1.15,2013-07-29 16:48:00,
2013-07-29 11:54:00,63.9,55.4,30.24,SW,234,2.0,6.0,74,0.00,,,0.00,872,Wunderground v.1.15,2013-07-29 16:54:00,
2013-07-29 11:59:00,64.1,56.7,30.24,WSW,242,2.0,6.0,77,0.00,,,0.00,956,Wunderground v.1.15,2013-07-29 16:59:00,
2013-07-29 12:04:00,64.4,56.7,30.23,West,265,0.0,6.0,76,0.00,,,0.00,1009,Wunderground v.1.15,2013-07-29 17:04:00,
2013-07-29 12:09:00,64.7,56.6,30.23,WSW,246,3.0,6.0,75,0.00,,,0.00,990,Wunderground v.1.15,2013-07-29 17:09:00,
2013-07-29 12:14:00,64.9,56.4,30.23,SW,228,1.0,4.0,74,0.00,,,0.00,875,Wunderground v.1.15,2013-07-29 17:14:00,
2013-07-29 12:20:00,65.2,55.2,30.23,SSW,211,5.0,5.0,70,0.00,,,0.00,1011,Wunderground v.1.15,2013-07-29 17:20:00,
2013-07-29 12:25:00,64.9,55.7,30.23,SW,223,2.0,7.0,72,0.00,,,0.00,998,Wunderground v.1.15,2013-07-29 17:25:00,
2013-07-29 12:30:00,65.3,56.0,30.23,SW,235,4.0,4.0,72,0.00,,,0.00,1016,Wunderground v.1.15,2013-07-29 17:30:00,
2013-07-29 12:35:00,65.2,55.6,30.24,WSW,248,0.0,5.0,71,0.00,,,0.00,939,Wunderground v.1.15,2013-07-29 17:35:00,
2013-07-29 12:40:00,65.9,56.2,30.23,WSW,246,2.0,6.0,71,0.00,,,0.00,1051,Wunderground v.1.15,2013-07-29 17:40:00,
2013-07-29 12:45:00,65.8,56.1,30.23,West,273,2.0,6.0,71,0.00,,,0.00,429,Wunderground v.1.15,2013-07-29 17:45:00,
2013-07-29 12:50:00,65.9,57.0,30.24,West,275,0.0,2.0,73,0.00,,,0.00,338,Wunderground v.1.15,2013-07-29 17:50:00,
2013-07-29 12:55:00,66.2,56.9,30.24,West,275,1.0,4.0,72,0.00,,,0.00,225,Wunderground v.1.15,2013-07-29 17:55:00,
2013-07-29 13:00:00,66.4,57.5,30.23,West,281,2.0,4.0,73,0.00,,,0.00,1051,Wunderground v.1.15,2013-07-29 18:00:00,
2013-07-29 13:05:00,67.3,57.2,30.23,SSW,204,2.0,7.0,70,0.00,,,0.00,958,Wunderground v.1.15,2013-07-29 18:05:00,
2013-07-29 13:10:00,67.4,56.9,30.23,WNW,292,2.0,3.0,69,0.00,,,0.00,417,Wunderground v.1.15,2013-07-29 18:10:00,
2013-07-29 13:16:00,67.1,57.0,30.23,SE,143,5.0,9.0,70,0.00,,,0.00,1030,Wunderground v.1.15,2013-07-29 18:16:00,
2013-07-29 13:21:00,67.1,57.4,30.23,SE,143,0.0,3.0,71,0.00,,,0.00,1005,Wunderground v.1.15,2013-07-29 18:21:00,
2013-07-29 13:26:00,67.4,57.7,30.22,SE,144,0.0,3.0,71,0.00,,,0.00,241,Wunderground v.1.15,2013-07-29 18:26:00,
2013-07-29 13:31:00,67.5,58.5,30.22,SSE,159,0.0,5.0,73,0.00,,,0.00,1016,Wunderground v.1.15,2013-07-29 18:31:00,
2013-07-29 13:36:00,68.0,58.2,30.22,South,181,1.0,6.0,71,0.00,,,0.00,991,Wunderground v.1.15,2013-07-29 18:36:00,
2013-07-29 13:42:00,68.1,57.9,30.22,South,188,2.0,5.0,70,0.00,,,0.00,1046,Wunderground v.1.15,2013-07-29 18:42:00,
2013-07-29 13:47:00,68.4,58.6,30.22,SSW,197,3.0,8.0,71,0.00,,,0.00,840,Wunderground v.1.15,2013-07-29 18:47:00,
2013-07-29 13:52:00,68.6,59.6,30.23,South,175,4.0,9.0,73,0.00,,,0.00,953,Wunderground v.1.15,2013-07-29 18:52:00,
2013-07-29 13:57:00,68.9,59.1,30.22,South,173,6.0,9.0,71,0.00,,,0.00,960,Wunderground v.1.15,2013-07-29 18:57:00,
2013-07-29 14:02:00,68.7,58.9,30.22,SSW,200,6.0,9.0,71,0.00,,,0.00,896,Wunderground v.1.15,2013-07-29 19:02:00,
2013-07-29 14:07:00,68.5,58.7,30.22,South,173,5.0,9.0,71,0.00,,,0.00,853,Wunderground v.1.15,2013-07-29 19:07:00,
2013-07-29 14:12:00,68.5,58.3,30.22,SSE,156,4.0,6.0,70,0.00,,,0.00,831,Wunderground v.1.15,2013-07-29 19:12:00,
2013-07-29 14:17:00,68.6,59.6,30.22,SE,144,8.0,8.0,73,0.00,,,0.00,833,Wunderground v.1.15,2013-07-29 19:17:00,
2013-07-29 14:23:00,68.9,58.3,30.22,SW,219,0.0,7.0,69,0.00,,,0.00,940,Wunderground v.1.15,2013-07-29 19:23:00,
2013-07-29 14:28:00,69.0,59.2,30.22,SE,132,6.0,7.0,71,0.00,,,0.00,893,Wunderground v.1.15,2013-07-29 19:28:00,
2013-07-29 14:33:00,69.4,59.6,30.22,South,191,3.0,7.0,71,0.00,,,0.00,886,Wunderground v.1.15,2013-07-29 19:33:00,
2013-07-29 14:38:00,69.4,58.8,30.22,South,173,1.0,8.0,69,0.00,,,0.00,408,Wunderground v.1.15,2013-07-29 19:38:00,
2013-07-29 14:43:00,69.2,59.4,30.22,SSW,198,4.0,6.0,71,0.00,,,0.00,930,Wunderground v.1.15,2013-07-29 19:43:00,
2013-07-29 14:48:00,69.4,58.8,30.22,South,191,0.0,6.0,69,0.00,,,0.00,935,Wunderground v.1.15,2013-07-29 19:48:00,
2013-07-29 14:54:00,69.4,58.4,30.22,SW,230,1.0,6.0,68,0.00,,,0.00,881,Wunderground v.1.15,2013-07-29 19:54:00,
2013-07-29 14:59:00,69.6,58.6,30.22,WSW,240,0.0,6.0,68,0.00,,,0.00,775,Wunderground v.1.15,2013-07-29 19:59:00,
2013-07-29 15:04:00,69.6,58.6,30.22,SSW,205,3.0,8.0,68,0.00,,,0.00,847,Wunderground v.1.15,2013-07-29 20:04:00,
2013-07-29 15:09:00,69.6,57.7,30.22,SSW,205,0.0,8.0,66,0.00,,,0.00,896,Wunderground v.1.15,2013-07-29 20:09:00,
2013-07-29 15:14:00,70.1,59.0,30.22,South,174,6.0,6.0,68,0.00,,,0.00,635,Wunderground v.1.15,2013-07-29 20:14:00,
2013-07-29 15:19:00,70.2,59.6,30.22,SE,146,2.0,8.0,69,0.00,,,0.00,492,Wunderground v.1.15,2013-07-29 20:19:00,
2013-07-29 15:24:00,69.9,58.0,30.22,SSE,147,0.0,6.0,66,0.00,,,0.00,596,Wunderground v.1.15,2013-07-29 20:24:00,
2013-07-29 15:29:00,70.1,57.8,30.22,SSE,147,0.0,6.0,65,0.00,,,0.00,529,Wunderground v.1.15,2013-07-29 20:29:00,
2013-07-29 15:34:00,70.4,58.1,30.22,SSE,147,2.0,2.0,65,0.00,,,0.00,508,Wunderground v.1.15,2013-07-29 20:34:00,
2013-07-29 15:39:00,70.5,58.6,30.22,SSE,147,0.0,4.0,66,0.00,,,0.00,452,Wunderground v.1.15,2013-07-29 20:39:00,
2013-07-29 15:44:00,70.4,58.5,30.22,SSE,147,0.0,5.0,66,0.00,,,0.00,610,Wunderground v.1.15,2013-07-29 20:44:00,
2013-07-29 15:50:00,70.3,57.5,30.22,SSE,165,0.0,2.0,64,0.00,,,0.00,341,Wunderground v.1.15,2013-07-29 20:50:00,
2013-07-29 15:55:00,70.2,58.7,30.22,SSE,165,2.0,4.0,67,0.00,,,0.00,322,Wunderground v.1.15,2013-07-29 20:55:00,
2013-07-29 16:00:00,70.1,58.6,30.22,SSE,164,1.0,2.0,67,0.00,,,0.00,316,Wunderground v.1.15,2013-07-29 21:00:00,
2013-07-29 16:05:00,70.0,58.5,30.22,SSE,164,1.0,5.0,67,0.00,,,0.00,325,Wunderground v.1.15,2013-07-29 21:05:00,
2013-07-29 16:10:00,70.0,58.5,30.22,SSE,164,1.0,4.0,67,0.00,,,0.00,714,Wunderground v.1.15,2013-07-29 21:10:00,
2013-07-29 16:15:00,70.1,58.6,30.22,SSE,164,1.0,4.0,67,0.00,,,0.00,243,Wunderground v.1.15,2013-07-29 21:15:00,
2013-07-29 16:20:00,70.3,58.8,30.22,SSE,163,1.0,2.0,67,0.00,,,0.00,325,Wunderground v.1.15,2013-07-29 21:20:00,
2013-07-29 16:25:00,70.3,58.4,30.22,SSE,163,1.0,5.0,66,0.00,,,0.00,408,Wunderground v.1.15,2013-07-29 21:25:00,
2013-07-29 16:30:00,70.6,57.8,30.22,SSE,164,1.0,4.0,64,0.00,,,0.00,810,Wunderground v.1.15,2013-07-29 21:30:00,
2013-07-29 16:36:00,71.1,58.7,30.22,SSE,164,0.0,4.0,65,0.00,,,0.00,443,Wunderground v.1.15,2013-07-29 21:36:00,
2013-07-29 16:41:00,71.5,59.1,30.22,SSE,164,2.0,2.0,65,0.00,,,0.00,705,Wunderground v.1.15,2013-07-29 21:41:00,
2013-07-29 16:47:00,71.9,57.7,30.22,East,88,0.0,5.0,61,0.00,,,0.00,710,Wunderground v.1.15,2013-07-29 21:47:00,
2013-07-29 16:52:00,72.3,58.1,30.21,East,88,0.0,1.0,61,0.00,,,0.00,664,Wunderground v.1.15,2013-07-29 21:52:00,
2013-07-29 16:58:00,72.6,58.4,30.20,East,88,0.0,4.0,61,0.00,,,0.00,578,Wunderground v.1.15,2013-07-29 21:58:00,
2013-07-29 17:03:00,73.0,58.8,30.20,East,88,0.0,2.0,61,0.00,,,0.00,638,Wunderground v.1.15,2013-07-29 22:03:00,
2013-07-29 17:08:00,73.3,59.0,30.21,East,94,0.0,6.0,61,0.00,,,0.00,652,Wunderground v.1.15,2013-07-29 22:08:00,
2013-07-29 17:13:00,73.8,60.0,30.20,East,93,0.0,4.0,62,0.00,,,0.00,647,Wunderground v.1.15,2013-07-29 22:13:00,
2013-07-29 17:18:00,74.4,59.1,30.21,East,93,0.0,4.0,59,0.00,,,0.00,599,Wunderground v.1.15,2013-07-29 22:18:00,
2013-07-29 17:23:00,74.7,58.9,30.21,ESE,103,2.0,4.0,58,0.00,,,0.00,512,Wunderground v.1.15,2013-07-29 22:23:00,
2013-07-29 17:28:00,74.3,58.1,30.21,ESE,106,0.0,7.0,57,0.00,,,0.00,425,Wunderground v.1.15,2013-07-29 22:28:00,
2013-07-29 17:33:00,73.6,58.4,30.21,ESE,106,1.0,1.0,59,0.00,,,0.00,464,Wunderground v.1.15,2013-07-29 22:33:00,
2013-07-29 17:38:00,73.6,58.9,30.21,East,96,1.0,5.0,60,0.00,,,0.00,417,Wunderground v.1.15,2013-07-29 22:38:00,
2013-07-29 17:43:00,73.2,58.5,30.21,East,95,0.0,2.0,60,0.00,,,0.00,471,Wunderground v.1.15,2013-07-29 22:43:00,
2013-07-29 17:49:00,73.1,58.8,30.21,East,95,0.0,2.0,61,0.00,,,0.00,429,Wunderground v.1.15,2013-07-29 22:49:00,
2013-07-29 17:54:00,73.3,59.5,30.21,East,101,0.0,5.0,62,0.00,,,0.00,420,Wunderground v.1.15,2013-07-29 22:54:00,
2013-07-29 17:59:00,73.2,59.4,30.21,ESE,102,1.0,5.0,62,0.00,,,0.00,403,Wunderground v.1.15,2013-07-29 22:59:00,
2013-07-29 18:04:00,73.1,58.8,30.22,ESE,103,0.0,4.0,61,0.00,,,0.00,383,Wunderground v.1.15,2013-07-29 23:04:00,
2013-07-29 18:09:00,73.7,59.9,30.22,ESE,102,2.0,5.0,62,0.00,,,0.00,367,Wunderground v.1.15,2013-07-29 23:09:00,
2013-07-29 18:14:00,74.0,60.2,30.21,ESE,102,2.0,2.0,62,0.00,,,0.00,346,Wunderground v.1.15,2013-07-29 23:14:00,
2013-07-29 18:19:00,74.0,60.6,30.21,ESE,102,0.0,4.0,63,0.00,,,0.00,323,Wunderground v.1.15,2013-07-29 23:19:00,
2013-07-29 18:24:00,74.0,60.6,30.22,ESE,102,2.0,2.0,63,0.00,,,0.00,309,Wunderground v.1.15,2013-07-29 23:24:00,
2013-07-29 18:29:00,74.0,60.2,30.22,ESE,102,0.0,2.0,62,0.00,,,0.00,292,Wunderground v.1.15,2013-07-29 23:29:00,
2013-07-29 18:35:00,74.0,59.2,30.22,ESE,102,0.0,2.0,60,0.00,,,0.00,269,Wunderground v.1.15,2013-07-29 23:35:00,
2013-07-29 18:40:00,73.8,59.5,30.22,ESE,102,0.0,0.0,61,0.00,,,0.00,244,Wunderground v.1.15,2013-07-29 23:40:00,
2013-07-29 18:45:00,73.9,60.1,30.22,ESE,102,0.0,1.0,62,0.00,,,0.00,239,Wunderground v.1.15,2013-07-29 23:45:00,
2013-07-29 18:50:00,73.8,59.5,30.22,ESE,102,0.0,2.0,61,0.00,,,0.00,207,Wunderground v.1.15,2013-07-29 23:50:00,
2013-07-29 18:55:00,73.4,59.6,30.22,ESE,104,0.0,6.0,62,0.00,,,0.00,197,Wunderground v.1.15,2013-07-29 23:55:00,
2013-07-29 19:01:00,72.9,59.6,30.22,ESE,104,2.0,4.0,63,0.00,,,0.00,163,Wunderground v.1.15,2013-07-30 00:01:00,
2013-07-29 19:07:00,72.4,59.5,30.23,ESE,105,4.0,6.0,64,0.00,,,0.00,93,Wunderground v.1.15,2013-07-30 00:07:00,
2013-07-29 19:12:00,71.8,59.8,30.22,ESE,105,0.0,2.0,66,0.00,,,0.00,39,Wunderground v.1.15,2013-07-30 00:12:00,
2013-07-29 19:17:00,71.4,59.9,30.22,ESE,105,0.0,2.0,67,0.00,,,0.00,37,Wunderground v.1.15,2013-07-30 00:17:00,
2013-07-29 19:22:00,71.3,60.2,30.22,ESE,105,0.0,0.0,68,0.00,,,0.00,33,Wunderground v.1.15,2013-07-30 00:22:00,
2013-07-29 19:27:00,71.1,60.4,30.22,ESE,105,0.0,1.0,69,0.00,,,0.00,30,Wunderground v.1.15,2013-07-30 00:27:00,
2013-07-29 19:32:00,70.9,60.2,30.22,ESE,105,1.0,1.0,69,0.00,,,0.00,26,Wunderground v.1.15,2013-07-30 00:32:00,
2013-07-29 19:37:00,70.6,59.9,30.22,ESE,105,0.0,4.0,69,0.00,,,0.00,25,Wunderground v.1.15,2013-07-30 00:37:00,
2013-07-29 19:42:00,70.2,60.0,30.22,ESE,105,0.0,0.0,70,0.00,,,0.00,23,Wunderground v.1.15,2013-07-30 00:42:00,
2013-07-29 19:47:00,69.9,60.1,30.22,ESE,105,0.0,0.0,71,0.00,,,0.00,25,Wunderground v.1.15,2013-07-30 00:47:00,
2013-07-29 19:52:00,69.5,59.7,30.22,ESE,105,0.0,0.0,71,0.00,,,0.00,23,Wunderground v.1.15,2013-07-30 00:52:00,
2013-07-29 19:57:00,69.1,59.7,30.22,ESE,105,0.0,0.0,72,0.00,,,0.00,21,Wunderground v.1.15,2013-07-30 00:57:00,
2013-07-29 20:02:00,68.7,59.7,30.23,ESE,105,0.0,0.0,73,0.00,,,0.00,18,Wunderground v.1.15,2013-07-30 01:02:00,
2013-07-29 20:07:00,68.3,60.1,30.22,ESE,105,0.0,0.0,75,0.00,,,0.00,14,Wunderground v.1.15,2013-07-30 01:07:00,
2013-07-29 20:12:00,67.9,60.1,30.23,ESE,105,0.0,0.0,76,0.00,,,0.00,11,Wunderground v.1.15,2013-07-30 01:12:00,
2013-07-29 20:17:00,67.3,59.8,30.22,ESE,105,0.0,0.0,77,0.00,,,0.00,7,Wunderground v.1.15,2013-07-30 01:17:00,
2013-07-29 20:22:00,66.7,59.6,30.23,ESE,105,0.0,0.0,78,0.00,,,0.00,5,Wunderground v.1.15,2013-07-30 01:22:00,
2013-07-29 20:27:00,66.2,59.5,30.23,ESE,105,0.0,0.0,79,0.00,,,0.00,0,Wunderground v.1.15,2013-07-30 01:27:00,
2013-07-29 20:32:00,65.7,59.4,30.23,ESE,105,0.0,0.0,80,0.00,,,0.00,0,Wunderground v.1.15,2013-07-30 01:32:00,
2013-07-29 20:37:00,65.2,59.2,30.23,ESE,105,0.0,0.0,81,0.00,,,0.00,0,Wunderground v.1.15,2013-07-30 01:37:00,
2013-07-29 20:43:00,64.7,58.7,30.23,ESE,105,0.0,0.0,81,0.00,,,0.00,0,Wunderground v.1.15,2013-07-30 01:43:00,
2013-07-29 20:48:00,64.3,58.7,30.23,ESE,105,0.0,1.0,82,0.00,,,0.00,0,Wunderground v.1.15,2013-07-30 01:48:00,
2013-07-29 20:53:00,63.8,58.5,30.23,ESE,105,0.0,0.0,83,0.00,,,0.00,0,Wunderground v.1.15,2013-07-30 01:53:00,
2013-07-29 20:58:00,63.4,58.5,30.23,ESE,105,0.0,0.0,84,0.00,,,0.00,0,Wunderground v.1.15,2013-07-30 01:58:00,
2013-07-29 21:03:00,63.0,58.4,30.23,ESE,105,0.0,0.0,85,0.00,,,0.00,0,Wunderground v.1.15,2013-07-30 02:03:00,
2013-07-29 21:08:00,62.6,58.0,30.24,ESE,105,0.0,1.0,85,0.00,,,0.00,0,Wunderground v.1.15,2013-07-30 02:08:00,
2013-07-29 21:13:00,62.3,58.1,30.24,ESE,105,0.0,1.0,86,0.00,,,0.00,0,Wunderground v.1.15,2013-07-30 02:13:00,
2013-07-29 21:18:00,62.1,57.9,30.24,ESE,105,0.0,1.0,86,0.00,,,0.00,0,Wunderground v.1.15,2013-07-30 02:18:00,
2013-07-29 21:23:00,61.8,57.6,30.24,ESE,105,0.0,0.0,86,0.00,,,0.00,0,Wunderground v.1.15,2013-07-30 02:23:00,
2013-07-29 21:29:00,61.4,57.5,30.24,ESE,105,0.0,0.0,87,0.00,,,0.00,0,Wunderground v.1.15,2013-07-30 02:29:00,
2013-07-29 21:33:00,61.2,57.6,30.24,ESE,105,0.0,0.0,88,0.00,,,0.00,0,Wunderground v.1.15,2013-07-30 02:33:00,
2013-07-29 21:39:00,60.9,57.3,30.24,ESE,105,0.0,0.0,88,0.00,,,0.00,0,Wunderground v.1.15,2013-07-30 02:39:00,
2013-07-29 21:44:00,60.8,57.2,30.24,ESE,105,0.0,0.0,88,0.00,,,0.00,0,Wunderground v.1.15,2013-07-30 02:44:00,
2013-07-29 21:49:00,60.6,57.0,30.24,ESE,105,0.0,0.0,88,0.00,,,0.00,0,Wunderground v.1.15,2013-07-30 02:49:00,
2013-07-29 21:54:00,60.4,57.1,30.24,ESE,105,0.0,1.0,89,0.00,,,0.00,0,Wunderground v.1.15,2013-07-30 02:54:00,
2013-07-29 21:59:00,60.4,57.1,30.25,ESE,105,0.0,1.0,89,0.00,,,0.00,0,Wunderground v.1.15,2013-07-30 02:59:00,
2013-07-29 22:04:00,60.2,56.9,30.25,ESE,105,0.0,0.0,89,0.00,,,0.00,0,Wunderground v.1.15,2013-07-30 03:04:00,
2013-07-29 22:09:00,60.1,56.8,30.25,ESE,105,0.0,1.0,89,0.00,,,0.00,0,Wunderground v.1.15,2013-07-30 03:09:00,
2013-07-29 22:14:00,59.8,56.6,30.25,ESE,105,0.0,1.0,89,0.00,,,0.00,0,Wunderground v.1.15,2013-07-30 03:14:00,
2013-07-29 22:19:00,59.6,56.7,30.25,ESE,105,0.0,4.0,90,0.00,,,0.00,0,Wunderground v.1.15,2013-07-30 03:19:00,
2013-07-29 22:24:00,59.7,56.8,30.25,ESE,105,0.0,1.0,90,0.00,,,0.00,0,Wunderground v.1.15,2013-07-30 03:24:00,
2013-07-29 22:29:00,59.7,57.4,30.25,ESE,105,0.0,2.0,92,0.00,,,0.00,0,Wunderground v.1.15,2013-07-30 03:29:00,
2013-07-29 22:34:00,59.6,56.7,30.25,ESE,105,0.0,1.0,90,0.00,,,0.00,0,Wunderground v.1.15,2013-07-30 03:34:00,
2013-07-29 22:40:00,59.6,56.7,30.25,ESE,105,0.0,1.0,90,0.00,,,0.00,0,Wunderground v.1.15,2013-07-30 03:40:00,
2013-07-29 22:45:00,59.7,57.1,30.25,ESE,105,0.0,1.0,91,0.00,,,0.00,0,Wunderground v.1.15,2013-07-30 03:45:00,
2013-07-29 22:50:00,59.6,57.0,30.25,ESE,105,1.0,1.0,91,0.00,,,0.00,0,Wunderground v.1.15,2013-07-30 03:50:00,
2013-07-29 22:55:00,59.6,57.0,30.25,ESE,105,1.0,1.0,91,0.00,,,0.00,0,Wunderground v.1.15,2013-07-30 03:55:00,
2013-07-29 23:00:00,59.6,57.0,30.24,ESE,105,0.0,0.0,91,0.00,,,0.00,0,Wunderground v.1.15,2013-07-30 04:00:00,
2013-07-29 23:01:00,59.6,57.0,30.24,ESE,105,0.0,0.0,91,0.00,,,0.00,0,Wunderground v.1.15,2013-07-30 04:01:00,
2013-07-29 23:06:00,59.5,56.9,30.24,ESE,105,1.0,1.0,91,0.00,,,0.00,0,Wunderground v.1.15,2013-07-30 04:06:00,
2013-07-29 23:11:00,59.5,57.2,30.25,ESE,108,0.0,6.0,92,0.00,,,0.00,0,Wunderground v.1.15,2013-07-30 04:11:00,
2013-07-29 23:16:00,59.5,56.9,30.25,ESE,108,1.0,6.0,91,0.00,,,0.00,0,Wunderground v.1.15,2013-07-30 04:16:00,
2013-07-29 23:21:00,59.5,56.9,30.25,ESE,119,1.0,6.0,91,0.00,,,0.00,0,Wunderground v.1.15,2013-07-30 04:21:00,
2013-07-29 23:26:00,59.5,56.9,30.25,ESE,120,0.0,6.0,91,0.00,,,0.00,0,Wunderground v.1.15,2013-07-30 04:26:00,
2013-07-29 23:31:00,59.5,56.9,30.25,SE,144,4.0,6.0,91,0.00,,,0.00,0,Wunderground v.1.15,2013-07-30 04:31:00,
2013-07-29 23:36:00,59.5,56.9,30.24,SSE,150,2.0,7.0,91,0.00,,,0.00,0,Wunderground v.1.15,2013-07-30 04:36:00,
2013-07-29 23:41:00,59.5,56.9,30.25,SSE,150,0.0,2.0,91,0.00,,,0.00,0,Wunderground v.1.15,2013-07-30 04:41:00,
2013-07-29 23:46:00,59.5,56.9,30.25,SSE,150,0.0,2.0,91,0.00,,,0.00,0,Wunderground v.1.15,2013-07-30 04:46:00,
2013-07-29 23:52:00,59.5,56.9,30.25,SSE,149,2.0,4.0,91,0.00,,,0.00,0,Wunderground v.1.15,2013-07-30 04:52:00,
2013-07-29 23:57:00,59.5,56.9,30.25,SSE,149,0.0,4.0,91,0.00,,,0.00,0,Wunderground v.1.15,2013-07-30 04:57:00,